Time,TemperatureF,DewpointF,PressureIn,WindDirection,WindDirectionDegrees,WindSpeedMPH,WindSpeedGustMPH,Humidity,HourlyPrecipIn,Conditions,Clouds,dailyrainin,SoftwareType,DateUTC
2013-03-30 00:02:00,61.0,29.0,29.94,West,270,2.0,3.0,30,0.00,,,0.00,,2013-03-30 07:02:00,
2013-03-30 00:11:00,61.0,29.0,29.94,West,270,2.0,3.0,30,0.00,,,0.00,,2013-03-30 07:11:00,
2013-03-30 00:22:00,62.0,28.0,29.94,West,270,3.0,6.0,27,0.00,,,0.00,,2013-03-30 07:22:00,
2013-03-30 00:31:00,62.0,26.0,29.94,SW,225,3.0,5.0,25,0.00,,,0.00,,2013-03-30 07:31:00,
2013-03-30 00:52:00,62.0,26.0,29.94,SW,225,0.0,0.0,25,0.00,,,0.00,,2013-03-30 07:52:00,
2013-03-30 01:01:00,62.0,26.0,29.94,SW,225,0.0,0.0,25,0.00,,,0.00,,2013-03-30 08:01:00,
2013-03-30 01:21:00,61.0,27.0,29.94,SW,225,0.0,0.0,27,0.00,,,0.00,,2013-03-30 08:21:00,
2013-03-30 01:31:00,61.0,27.0,29.94,SW,225,1.0,3.0,27,0.00,,,0.00,,2013-03-30 08:31:00,
2013-03-30 01:42:00,61.0,27.0,29.94,SW,225,1.0,3.0,27,0.00,,,0.00,,2013-03-30 08:42:00,
2013-03-30 01:52:00,61.0,28.0,29.94,SW,225,0.0,0.0,28,0.00,,,0.00,,2013-03-30 08:52:00,
2013-03-30 02:01:00,61.0,27.0,29.94,SW,225,3.0,5.0,27,0.00,,,0.00,,2013-03-30 09:01:00,
2013-03-30 02:11:00,61.0,27.0,29.94,WSW,248,5.0,6.0,27,0.00,,,0.00,,2013-03-30 09:11:00,
2013-03-30 02:22:00,61.0,27.0,29.94,WSW,248,5.0,6.0,27,0.00,,,0.00,,2013-03-30 09:22:00,
2013-03-30 02:32:00,61.0,27.0,29.94,WSW,248,5.0,6.0,27,0.00,,,0.00,,2013-03-30 09:32:00,
2013-03-30 02:42:00,61.0,27.0,29.94,WSW,248,5.0,6.0,27,0.00,,,0.00,,2013-03-30 09:42:00,
2013-03-30 02:53:00,61.0,25.0,29.91,WSW,248,5.0,6.0,25,0.00,,,0.00,,2013-03-30 09:53:00,
2013-03-30 03:02:00,60.0,24.0,29.94,WSW,248,2.0,5.0,25,0.00,,,0.00,,2013-03-30 10:02:00,
2013-03-30 03:22:00,60.0,24.0,29.94,WSW,248,1.0,3.0,25,0.00,,,0.00,,2013-03-30 10:22:00,
2013-03-30 03:32:00,60.0,24.0,29.94,WSW,248,0.0,0.0,25,0.00,,,0.00,,2013-03-30 10:32:00,
2013-03-30 03:52:00,60.0,24.0,29.94,WSW,248,0.0,0.0,25,0.00,,,0.00,,2013-03-30 10:52:00,
2013-03-30 04:02:00,60.0,24.0,29.91,WSW,248,2.0,5.0,25,0.00,,,0.00,,2013-03-30 11:02:00,
2013-03-30 04:22:00,60.0,27.0,29.91,WSW,248,0.0,0.0,28,0.00,,,0.00,,2013-03-30 11:22:00,
2013-03-30 04:32:00,60.0,27.0,29.91,WSW,248,0.0,0.0,28,0.00,,,0.00,,2013-03-30 11:32:00,
2013-03-30 04:42:00,60.0,27.0,29.91,WSW,248,0.0,0.0,28,0.00,,,0.00,,2013-03-30 11:42:00,
2013-03-30 04:52:00,59.0,26.0,29.91,WSW,248,3.0,5.0,28,0.00,,,0.00,,2013-03-30 11:52:00,
2013-03-30 05:02:00,59.0,26.0,29.91,SW,225,0.0,5.0,28,0.00,,,0.00,,2013-03-30 12:02:00,
2013-03-30 05:12:00,59.0,26.0,29.91,SW,225,0.0,5.0,28,0.00,,,0.00,,2013-03-30 12:12:00,
2013-03-30 05:22:00,59.0,26.0,29.91,SW,225,2.0,5.0,28,0.00,,,0.00,,2013-03-30 12:22:00,
2013-03-30 05:32:00,59.0,26.0,29.91,SW,225,0.0,2.0,28,0.00,,,0.00,,2013-03-30 12:32:00,
2013-03-30 05:41:00,59.0,26.0,29.91,SW,225,0.0,2.0,28,0.00,,,0.00,,2013-03-30 12:41:00,
2013-03-30 05:53:00,59.0,26.0,29.91,SW,225,0.0,0.0,28,0.00,,,0.00,,2013-03-30 12:53:00,
2013-03-30 06:01:00,58.0,25.0,29.88,SW,225,2.0,3.0,28,0.00,,,0.00,,2013-03-30 13:01:00,
2013-03-30 06:11:00,58.0,25.0,29.88,SW,225,2.0,3.0,28,0.00,,,0.00,,2013-03-30 13:11:00,
2013-03-30 06:22:00,57.0,24.0,29.88,SW,225,0.0,0.0,28,0.00,,,0.00,,2013-03-30 13:22:00,
2013-03-30 06:31:00,56.0,26.0,29.88,SW,225,0.0,0.0,31,0.00,,,0.00,,2013-03-30 13:31:00,
2013-03-30 06:42:00,56.0,26.0,29.88,SW,225,0.0,0.0,31,0.00,,,0.00,,2013-03-30 13:42:00,
2013-03-30 06:52:00,56.0,26.0,29.88,SW,225,1.0,3.0,31,0.00,,,0.00,,2013-03-30 13:52:00,
2013-03-30 07:01:00,56.0,26.0,29.88,SW,225,0.0,0.0,31,0.00,,,0.00,,2013-03-30 14:01:00,
2013-03-30 07:11:00,56.0,26.0,29.88,SW,225,0.0,0.0,31,0.00,,,0.00,,2013-03-30 14:11:00,
2013-03-30 07:22:00,55.0,25.0,29.88,SW,225,0.0,0.0,31,0.00,,,0.00,,2013-03-30 14:22:00,
2013-03-30 07:32:00,57.0,26.0,29.91,ENE,68,4.0,5.0,30,0.00,,,0.00,,2013-03-30 14:32:00,
2013-03-30 07:41:00,57.0,26.0,29.91,ENE,68,4.0,5.0,30,0.00,,,0.00,,2013-03-30 14:41:00,
2013-03-30 07:52:00,61.0,28.0,29.91,ENE,68,3.0,5.0,28,0.00,,,0.00,,2013-03-30 14:52:00,
2013-03-30 08:01:00,64.0,26.0,29.91,ENE,68,0.0,3.0,24,0.00,,,0.00,,2013-03-30 15:01:00,
2013-03-30 08:11:00,64.0,26.0,29.91,ENE,68,0.0,3.0,24,0.00,,,0.00,,2013-03-30 15:11:00,
2013-03-30 08:21:00,67.0,26.0,29.91,ENE,68,1.0,5.0,21,0.00,,,0.00,,2013-03-30 15:21:00,
2013-03-30 08:33:00,69.0,24.0,29.91,ENE,68,1.0,3.0,18,0.00,,,0.00,,2013-03-30 15:33:00,
2013-03-30 08:52:00,68.0,23.0,29.91,ENE,68,3.0,5.0,18,0.00,,,0.00,,2013-03-30 15:52:00,
2013-03-30 09:02:00,69.0,24.0,29.91,NE,45,3.0,6.0,18,0.00,,,0.00,,2013-03-30 16:02:00,
2013-03-30 09:12:00,69.0,24.0,29.91,NE,45,3.0,5.0,18,0.00,,,0.00,,2013-03-30 16:12:00,
2013-03-30 09:22:00,69.0,24.0,29.91,NE,45,3.0,5.0,18,0.00,,,0.00,,2013-03-30 16:22:00,
2013-03-30 09:32:00,69.0,21.0,29.94,West,270,4.0,6.0,16,0.00,,,0.00,,2013-03-30 16:32:00,
2013-03-30 09:52:00,71.0,21.0,29.94,West,270,2.0,5.0,15,0.00,,,0.00,,2013-03-30 16:52:00,
2013-03-30 10:01:00,72.0,22.0,29.94,West,270,3.0,6.0,15,0.00,,,0.00,,2013-03-30 17:01:00,
2013-03-30 10:22:00,73.0,23.0,29.94,NNW,338,1.0,5.0,15,0.00,,,0.00,,2013-03-30 17:22:00,
2013-03-30 10:31:00,73.0,21.0,29.94,North,0,1.0,6.0,14,0.00,,,0.00,,2013-03-30 17:31:00,
2013-03-30 10:42:00,73.0,21.0,29.94,North,0,1.0,6.0,14,0.00,,,0.00,,2013-03-30 17:42:00,
2013-03-30 10:52:00,74.0,22.0,29.94,NE,49,3.0,9.0,14,0.00,,,0.00,,2013-03-30 17:52:00,
2013-03-30 11:01:00,74.0,22.0,29.94,ENE,68,3.0,6.0,14,0.00,,,0.00,,2013-03-30 18:01:00,
2013-03-30 11:11:00,76.0,23.0,29.94,North,2,1.0,6.0,14,0.00,,,0.00,,2013-03-30 18:11:00,
2013-03-30 11:21:00,76.0,23.0,29.94,North,2,1.0,6.0,14,0.00,,,0.00,,2013-03-30 18:21:00,
2013-03-30 11:31:00,77.0,24.0,29.94,NNW,338,3.0,5.0,14,0.00,,,0.00,,2013-03-30 18:31:00,
2013-03-30 11:42:00,77.0,24.0,29.94,NNW,338,3.0,5.0,14,0.00,,,0.00,,2013-03-30 18:42:00,
2013-03-30 11:53:00,76.0,23.0,29.94,North,0,3.0,6.0,14,0.00,,,0.00,,2013-03-30 18:53:00,
2013-03-30 12:01:00,78.0,25.0,29.94,NW,315,5.0,6.0,14,0.00,,,0.00,,2013-03-30 19:01:00,
2013-03-30 12:11:00,78.0,25.0,29.94,NW,315,5.0,6.0,14,0.00,,,0.00,,2013-03-30 19:11:00,
2013-03-30 12:21:00,77.0,24.0,29.94,WNW,292,3.0,7.0,14,0.00,,,0.00,,2013-03-30 19:21:00,
2013-03-30 12:31:00,78.0,25.0,29.94,SSE,163,2.0,6.0,14,0.00,,,0.00,,2013-03-30 19:31:00,
2013-03-30 12:41:00,78.0,25.0,29.94,SSE,163,2.0,6.0,14,0.00,,,0.00,,2013-03-30 19:41:00,
2013-03-30 12:52:00,78.0,25.0,29.94,NNE,22,5.0,7.0,14,0.00,,,0.00,,2013-03-30 19:52:00,
2013-03-30 13:01:00,78.0,25.0,29.94,SE,124,5.0,8.0,14,0.00,,,0.00,,2013-03-30 20:01:00,
2013-03-30 13:11:00,78.0,25.0,29.94,SE,124,5.0,8.0,14,0.00,,,0.00,,2013-03-30 20:11:00,
2013-03-30 13:21:00,79.0,24.0,29.94,ESE,112,5.0,8.0,13,0.00,,,0.00,,2013-03-30 20:21:00,
2013-03-30 13:32:00,80.0,25.0,29.94,North,0,5.0,8.0,13,0.00,,,0.00,,2013-03-30 20:32:00,
2013-03-30 13:42:00,80.0,25.0,29.94,North,0,5.0,8.0,13,0.00,,,0.00,,2013-03-30 20:42:00,
2013-03-30 13:52:00,77.0,24.0,29.94,NW,315,6.0,8.0,14,0.00,,,0.00,,2013-03-30 20:52:00,
2013-03-30 14:01:00,78.0,25.0,29.94,WNW,283,6.0,9.0,14,0.00,,,0.00,,2013-03-30 21:01:00,
2013-03-30 14:11:00,78.0,25.0,29.94,WNW,283,6.0,9.0,14,0.00,,,0.00,,2013-03-30 21:11:00,
2013-03-30 14:22:00,80.0,25.0,29.94,North,356,6.0,10.0,13,0.00,,,0.00,,2013-03-30 21:22:00,
2013-03-30 14:32:00,79.0,24.0,29.94,NW,305,6.0,10.0,13,0.00,,,0.00,,2013-03-30 21:32:00,
2013-03-30 14:42:00,79.0,24.0,29.94,NW,305,6.0,10.0,13,0.00,,,0.00,,2013-03-30 21:42:00,
2013-03-30 14:53:00,79.0,24.0,29.94,West,270,5.0,6.0,13,0.00,,,0.00,,2013-03-30 21:53:00,
2013-03-30 15:02:00,81.0,26.0,29.91,WSW,248,2.0,8.0,13,0.00,,,0.00,,2013-03-30 22:02:00,
2013-03-30 15:12:00,81.0,26.0,29.91,WSW,248,2.0,8.0,13,0.00,,,0.00,,2013-03-30 22:12:00,
2013-03-30 15:23:00,80.0,25.0,29.94,West,270,8.0,12.0,13,0.00,,,0.00,,2013-03-30 22:23:00,
2013-03-30 15:32:00,79.0,24.0,29.91,NE,45,6.0,9.0,13,0.00,,,0.00,,2013-03-30 22:32:00,
2013-03-30 15:42:00,79.0,24.0,29.91,NE,45,6.0,9.0,13,0.00,,,0.00,,2013-03-30 22:42:00,
2013-03-30 15:53:00,80.0,25.0,29.91,WNW,299,8.0,13.0,13,0.00,,,0.00,,2013-03-30 22:53:00,
2013-03-30 16:02:00,79.0,24.0,29.91,NW,315,6.0,9.0,13,0.00,,,0.00,,2013-03-30 23:02:00,
2013-03-30 16:12:00,79.0,24.0,29.91,NW,315,6.0,9.0,13,0.00,,,0.00,,2013-03-30 23:12:00,
2013-03-30 16:22:00,79.0,26.0,29.91,North,0,7.0,12.0,14,0.00,,,0.00,,2013-03-30 23:22:00,
2013-03-30 16:32:00,79.0,24.0,29.91,WNW,284,8.0,12.0,13,0.00,,,0.00,,2013-03-30 23:32:00,
2013-03-30 16:41:00,79.0,24.0,29.91,WNW,284,8.0,12.0,13,0.00,,,0.00,,2013-03-30 23:41:00,
2013-03-30 16:52:00,79.0,24.0,29.91,West,270,6.0,9.0,13,0.00,,,0.00,,2013-03-30 23:52:00,
2013-03-30 17:02:00,80.0,25.0,29.88,NNW,338,3.0,8.0,13,0.00,,,0.00,,2013-03-31 00:02:00,
2013-03-30 17:11:00,80.0,25.0,29.88,NNW,338,3.0,8.0,13,0.00,,,0.00,,2013-03-31 00:11:00,
2013-03-30 17:22:00,80.0,25.0,29.88,WNW,290,5.0,8.0,13,0.00,,,0.00,,2013-03-31 00:22:00,
2013-03-30 17:31:00,79.0,24.0,29.88,NW,315,7.0,9.0,13,0.00,,,0.00,,2013-03-31 00:31:00,
2013-03-30 17:42:00,79.0,24.0,29.88,NW,315,7.0,9.0,13,0.00,,,0.00,,2013-03-31 00:42:00,
2013-03-30 17:52:00,78.0,25.0,29.88,West,270,7.0,10.0,14,0.00,,,0.00,,2013-03-31 00:52:00,
2013-03-30 18:01:00,78.0,25.0,29.88,NW,315,7.0,9.0,14,0.00,,,0.00,,2013-03-31 01:01:00,
2013-03-30 18:11:00,78.0,25.0,29.88,NW,315,7.0,9.0,14,0.00,,,0.00,,2013-03-31 01:11:00,
2013-03-30 18:21:00,78.0,25.0,29.88,SW,225,6.0,12.0,14,0.00,,,0.00,,2013-03-31 01:21:00,
2013-03-30 18:31:00,77.0,24.0,29.88,SW,230,7.0,8.0,14,0.00,,,0.00,,2013-03-31 01:31:00,
2013-03-30 18:41:00,75.0,23.0,29.88,SW,225,5.0,8.0,14,0.00,,,0.00,,2013-03-31 01:41:00,
2013-03-30 18:42:00,77.0,24.0,29.88,SW,230,7.0,8.0,14,0.00,,,0.00,,2013-03-31 01:42:00,
2013-03-30 18:52:00,76.0,23.0,29.88,SW,225,7.0,8.0,14,0.00,,,0.00,,2013-03-31 01:52:00,
2013-03-30 19:01:00,75.0,23.0,29.88,SW,225,5.0,8.0,14,0.00,,,0.00,,2013-03-31 02:01:00,
2013-03-30 19:11:00,75.0,23.0,29.88,SW,225,5.0,8.0,14,0.00,,,0.00,,2013-03-31 02:11:00,
2013-03-30 19:21:00,75.0,23.0,29.88,SW,225,5.0,8.0,14,0.00,,,0.00,,2013-03-31 02:21:00,
2013-03-30 19:31:00,75.0,23.0,29.88,SW,225,5.0,8.0,14,0.00,,,0.00,,2013-03-31 02:31:00,
2013-03-30 20:33:00,65.0,18.0,29.88,SW,225,2.0,5.0,16,0.00,,,0.00,,2013-03-31 03:33:00,
2013-03-30 20:54:00,63.0,18.0,29.91,SSW,202,3.0,5.0,17,0.00,,,0.00,,2013-03-31 03:54:00,
2013-03-30 21:02:00,62.0,-99.9,29.91,SE,135,3.0,5.0,17,0.00,,,0.00,,2013-03-31 04:02:00,
2013-03-30 21:22:00,63.0,18.0,29.91,SE,135,4.0,6.0,17,0.00,,,0.00,,2013-03-31 04:22:00,
2013-03-30 21:32:00,62.0,17.0,29.91,SE,135,3.0,5.0,17,0.00,,,0.00,,2013-03-31 04:32:00,
2013-03-30 21:52:00,61.0,17.0,29.88,SE,135,2.0,3.0,18,0.00,,,0.00,,2013-03-31 04:52:00,
2013-03-30 22:02:00,59.0,16.0,29.88,SE,135,0.0,3.0,18,0.00,,,0.00,,2013-03-31 05:02:00,
2013-03-30 22:22:00,58.0,17.0,29.91,SE,135,0.0,0.0,20,0.00,,,0.00,,2013-03-31 05:22:00,
2013-03-30 22:32:00,57.0,17.0,29.91,SE,135,0.0,0.0,21,0.00,,,0.00,,2013-03-31 05:32:00,
2013-03-30 22:53:00,56.0,17.0,29.91,SE,135,0.0,0.0,21,0.00,,,0.00,,2013-03-31 05:53:00,
2013-03-30 23:01:00,56.0,17.0,29.91,SSE,155,2.0,5.0,21,0.00,,,0.00,,2013-03-31 06:01:00,
2013-03-30 23:22:00,56.0,17.0,29.91,South,180,0.0,3.0,21,0.00,,,0.00,,2013-03-31 06:22:00,
2013-03-30 23:32:00,55.0,19.0,29.88,South,180,2.0,5.0,24,0.00,,,0.00,,2013-03-31 06:32:00,
2013-03-30 23:52:00,54.0,18.0,29.88,South,180,2.0,3.0,24,0.00,,,0.00,,2013-03-31 06:52:00,